Below you will find the last 24 hours of weather readings for Ashburn VA

Ashburn VA Today's Weather Data

Observed at: Ashburn, VA

Hour Observerd Temp Pressure Visibility Humidity Dew Point Wind
20:00 Fair 75°F (23.9°C) 101.59 kPa 10 miles 54% 57.2°F (14°C) 3 mph NW 308.75°
19:00 Fair 75°F (23.9°C) 101.59 kPa 10 miles 54% 57.2°F (14°C) 3 mph NW 308.75°18 mph
18:00 Fair 81°F (27.2°C) 101.59 kPa 10 miles 42% 55.4°F (13°C) 8 mph N 5°18 mph
17:00 Partly Cloudy 81°F (27.2°C) 101.59 kPa 10 miles 51% 60.8°F (16°C) 10 mph N 5°16 mph
16:00 Partly Cloudy 81°F (27.2°C) 101.59 kPa 10 miles 51% 60.8°F (16°C) 10 mph N 5°16 mph
15:00 Partly Cloudy 81°F (27.2°C) 101.59 kPa 10 miles 51% 60.8°F (16°C) 10 mph N 5°16 mph
14:00 Mostly Cloudy 79°F (26.1°C) 101.59 kPa 10 miles 51% 59°F (15°C) 8 mph N 5°19 mph
13:00 Partly Cloudy 70°F (21.1°C) 101.59 kPa 10 miles 73% 60.8°F (16°C) 8 mph N 5°
12:00 Partly Cloudy 70°F (21.1°C) 101.59 kPa 10 miles 73% 60.8°F (16°C) 8 mph N 5°
11:00 Partly Cloudy 70°F (21.1°C) 101.59 kPa 10 miles 73% 60.8°F (16°C) 8 mph N 5°
10:00 Partly Cloudy 70°F (21.1°C) 101.59 kPa 10 miles 73% 60.8°F (16°C) 8 mph N 5°
09:00 Partly Cloudy 70°F (21.1°C) 101.59 kPa 10 miles 73% 60.8°F (16°C) 8 mph N 5°
08:00 Partly Cloudy 70°F (21.1°C) 101.59 kPa 10 miles 73% 60.8°F (16°C) 8 mph N 5°
07:00 Partly Cloudy 70°F (21.1°C) 101.59 kPa 10 miles 73% 60.8°F (16°C) 8 mph N 5°
06:00 Partly Cloudy 70°F (21.1°C) 101.59 kPa 10 miles 73% 60.8°F (16°C) 5 mph N 5°
05:00 Mostly Cloudy 70°F (21.1°C) 101.59 kPa 10 miles 78% 62.6°F (17°C) 8 mph NW 308.75°20 mph
04:00 Light Rain 70°F (21.1°C) 101.59 kPa 10 miles 83% 64.4°F (18°C) 10 mph N 5°20 mph
03:00 Light Rain 70°F (21.1°C) 101.59 kPa 10 miles 83% 64.4°F (18°C) 10 mph N 5°
02:00 Partly Cloudy 72°F (22.2°C) 98.21 kPa 10 miles 78% 64.4°F (18°C) 3 mph N 5°
01:00 Partly Cloudy 72°F (22.2°C) 98.21 kPa 10 miles 78% 64.4°F (18°C) 3 mph N 5°
00:00 Partly Cloudy 72°F (22.2°C) 98.21 kPa 10 miles 78% 64.4°F (18°C) 3 mph N 5°
23:00 Overcast 73°F (22.8°C) 101.59 kPa 10 miles 69% 62.6°F (17°C) 8 mph N 5°19 mph
22:00 Overcast 77°F (25°C) 101.59 kPa 10 miles 65% 64.4°F (18°C) 11 mph N 5°17 mph
21:00 Mostly Cloudy 79°F (26.1°C) 98.21 kPa 10 miles 70% 68°F (20°C) 6 mph N 5°